Weather History for KCON - April, 2013

Change the Weather History Date:

Monday, April 8, 2013

  Actual Average Record
Temperature  
Mean Temperature 46 °F 42 °F  
Max Temperature 63 °F 54 °F 92 °F (1871)
Min Temperature 29 °F 30 °F 15 °F (1888)
Degree Days  
Heating Degree Days 19 23  
Month to date heating degree days 203 195  
Since 1 July heating degree days 6120 6442  
Cooling Degree Days 0 0  
Month to date cooling degree days 0 0  
Year to date cooling degree days 0 0  
Moisture  
Dew Point 32 °F    
Average Humidity 62    
Maximum Humidity 100    
Minimum Humidity 23    
Precipitation  
Precipitation T in 0.11 in 0.75 in (1940)
Month to date precipitation 0.23 0.91  
Year to date precipitation 7.04 9.50  
Snow  
Snow 0.00 in 0.20 in 6.80 in (1956)
Month to date snowfall T 1.4  
Since 1 July snowfall 83.2 60.0  
Snow Depth 0.00 in    
Sea Level Pressure  
Sea Level Pressure 30.02 in    
Wind  
Wind Speed 6 mph (NW)    
Max Wind Speed 21 mph    
Max Gust Speed 29 mph    
Visibility 9 miles    
Events      
T = Trace of Precipitation, MM = Missing Value Source: NWS Daily Summary

Daily Weather History Graph

Daily Weather History Graph

Search for Another Location

Airport or City:

Trip Planner

Search our weather history database for the weather conditions in past years. The results will help you decide how hot, cold, wet, or windy it might be!

Date:

Astronomy

Apr. 08, 2013 Rise Set
Actual Time 6:15 AM EDT 7:20 PM EDT
Civil Twilight 5:46 AM EDT 7:50 PM EDT
Nautical Twilight 5:11 AM EDT 8:25 PM EDT
Astronomical Twilight 4:34 AM EDT 9:01 PM EDT
Moon 5:06 AM EDT (4/8) 5:50 PM EDT (4/8)
Length of Visible Light 14h 03m
Length of Day
13h 05m
Waning Crescent, 3% of the Moon is Illuminated
Apr 8
Waning Crescent
Apr 10
New
Apr 18
First Quarter
Apr 25
Full
May 2
Last Quarter

Hourly Weather History & Observations

Time (EDT) Temp. Windchill Dew Point Humidity Pressure Visibility Wind Dir Wind Speed Gust Speed Precip Events Conditions
12:51 AM 39.9 °F 35.8 °F 35.1 °F 83% 29.97 in 10.0 mi South 5.8 mph - N/A   Overcast
1:51 AM 41.0 °F 38.0 °F 37.0 °F 86% 29.96 in 10.0 mi SSE 4.6 mph - N/A   Clear
2:51 AM 39.9 °F 37.8 °F 37.9 °F 93% 29.95 in 10.0 mi South 3.5 mph - N/A   Clear
3:51 AM 37.0 °F - 36.0 °F 96% 29.95 in 10.0 mi Calm Calm - N/A   Clear
4:22 AM 33.8 °F - 32.0 °F 93% 29.94 in 2.5 mi Calm Calm - N/A   Clear
4:31 AM 33.8 °F 30.8 °F 32.0 °F 93% 29.94 in 5.0 mi South 3.5 mph - N/A   Clear
4:51 AM 33.1 °F - 33.1 °F 100% 29.95 in 9.0 mi Calm Calm - N/A   Clear
5:51 AM 33.1 °F - 32.0 °F 96% 29.96 in 5.0 mi Calm Calm - N/A   Clear
6:51 AM 34.0 °F 29.8 °F 33.1 °F 96% 29.99 in 5.0 mi NE 4.6 mph - N/A   Clear
7:51 AM 45.0 °F 41.2 °F 37.9 °F 76% 30.00 in 10.0 mi WNW 6.9 mph - N/A   Clear
8:51 AM 50.0 °F - 35.1 °F 57% 30.01 in 10.0 mi NNW 10.4 mph 20.7 mph N/A   Clear
9:51 AM 48.9 °F - 32.0 °F 52% 30.04 in 10.0 mi NNW 11.5 mph 19.6 mph N/A   Clear
10:51 AM 50.0 °F - 32.0 °F 50% 30.06 in 10.0 mi WNW 15.0 mph - N/A   Clear
11:51 AM 54.0 °F - 30.9 °F 41% 30.08 in 10.0 mi WNW 13.8 mph 19.6 mph N/A   Clear
12:51 PM 55.9 °F - 28.9 °F 36% 30.06 in 10.0 mi NW 12.7 mph 18.4 mph N/A   Clear
1:51 PM 57.9 °F - 27.0 °F 31% 30.06 in 10.0 mi WNW 10.4 mph 16.1 mph N/A   Clear
2:51 PM 60.1 °F - 27.0 °F 28% 30.05 in 10.0 mi NNW 10.4 mph - N/A   Clear
3:51 PM 61.0 °F - 25.0 °F 25% 30.05 in 10.0 mi NNW 8.1 mph - N/A   Clear
4:51 PM 62.1 °F - 25.0 °F 24% 30.03 in 10.0 mi NNW 6.9 mph - N/A   Clear
5:51 PM 61.0 °F - 24.1 °F 24% 30.03 in 10.0 mi Calm Calm - N/A   Clear
6:51 PM 57.0 °F - 24.1 °F 28% 30.05 in 10.0 mi Calm Calm - N/A   Clear
7:51 PM 48.9 °F - 27.0 °F 43% 30.07 in 10.0 mi East 3.5 mph - N/A   Clear
8:51 PM 48.9 °F - 34.0 °F 56% 30.09 in 10.0 mi ESE 4.6 mph - N/A   Clear
9:51 PM 48.0 °F - 34.0 °F 58% 30.10 in 10.0 mi ESE 3.5 mph - N/A   Clear
10:51 PM 46.9 °F - 34.0 °F 61% 30.09 in 10.0 mi SE 5.8 mph - N/A   Partly Cloudy
11:51 PM 46.9 °F - 35.1 °F 63% 30.08 in 10.0 mi Calm Calm - N/A   Clear